Regional Weather Roundup
Issued by NWS Midland/Odessa, TX

Skip options and go directly to product.
Home | Oldest Version | Previous Version | Current Version | All | Text Only | Save Text | Print | Product List | Glossary On

Skip product version selection by date and time.   
057
ASUS44 KMAF 272110
RWRMAF
MIDLAND AREA WEATHER ROUNDUP
NATIONAL WEATHER SERVICE MIDLAND TX
400 PM CDT WED MAY 27 2015

...IN SOUTHWEST TEXAS AND SOUTHEAST NEW MEXICO...

CITY           SKY/WX    TMP DP  RH WIND       PRES   REMARKS
ALPINE         SUNNY     89  46  21 S12G17    30.11F
ANDREWS        FAIR      87  62  42 SE14G21   30.02F
ARTESIA        PTSUNNY   90  37  15 SE10G21   30.00F
BIG SPRING     MOSUNNY   89  60  36 SE13      30.03F
CARLSBAD       MOSUNNY   92  41  17 SE15G24   29.96F
DRYDEN           N/A     91  68  46 SE9G26    29.96F
FORT STOCKTON  MOSUNNY   92  57  30 SE14G23   29.98F
GUAD PASS      PTSUNNY   86  27  11 SW15G28   30.13F
HOBBS          MOSUNNY   86  54  32 S14       30.04F
MARFA          SUNNY     86  43  22 S8        30.10F
MIDLAND AIRPK  MOSUNNY   89  61  38 SE14G21   30.01F
MIDLAND INTL   MOSUNNY   90  63  40 SE12G20   30.00F
ODESSA         MOSUNNY   89  61  38 SE14      30.01F
PECOS          SUNNY     95  53  24 E17       29.93F
PRESIDIO       FAIR     100  43  14 SE9G17    29.89F
SEMINOLE       MOSUNNY   89  59  37 SE14G20   30.04F
SNYDER         MOSUNNY   86  66  51 SE13      30.03F
WINK           MOSUNNY   95  56  26 SE15G23   29.96F
$$
...OTHER STATIONS IN TEXAS...

CITY           SKY/WX    TMP DP  RH WIND       PRES   REMARKS
ABILENE        MOSUNNY   89  69  51 S10       30.01F
AMARILLO       MOSUNNY   84  58  40 S16       30.03F
AUSTIN         PTSUNNY   85  74  69 SE13      30.00F
BROWNSVILLE    PTSUNNY   87  76  69 E15       29.98F
CORPUS CHRISTI MOSUNNY   88  73  61 E16       30.00F
DALLAS FTW     PTSUNNY   85  67  54 S10       30.03F
DEL RIO        MOSUNNY   89  73  59 E17G25    29.95F
EL PASO        CLOUDY    89  20   8 E5        29.99F
HOUSTON INT    PTSUNNY   85  74  69 SE7       30.05F
LUBBOCK        PTSUNNY   85  63  47 SE21      30.03F
SAN ANGELO     SUNNY     89  67  47 S9        29.99F
SAN ANTONIO    MOSUNNY   89  71  55 SE17G25   30.02F
WACO           MOSUNNY   87  71  58 S12       30.02F
WICHITA FALLS  NOT AVBL
$$
...OTHER LOCATIONS IN NEW MEXICO...

CITY           SKY/WX    TMP DP  RH WIND       PRES   REMARKS
ALAMAGORDO     PTSUNNY   90  23   9 SW13G18   30.02F
ALBUQUERQUE    CLOUDY    77  30  17 W10       30.11F
CANNON AFB     PTSUNNY   84  48  27 S14       30.06F
CLOVIS         PTSUNNY   82  48  30 S16G26      N/A
HOLLOMAN AFB   PTSUNNY   89  21   8 NW8       30.00F
ROSWELL        CLOUDY    90  42  18 S14G21    30.00F
RUIDOSO        CLOUDY    75  21  13 SW15G25   30.22S
SANTA FE       PTSUNNY   76  32  20 SW12G22   30.15F
TRUTH OR CONSE MOSUNNY   86  21   9 S16G28    30.04F
TUCUMCARI      MOSUNNY   87  41  19 SW18      30.01F
$$

USA.gov is the U.S. government's official web portal to all federal, state and local government web resources and services.